This demonstration page uses our WeatherBlox Daily Observations layout. Learn more.

39.51506, -84.39828

Hourly Observations for October 29, 2020

Temp ( °F °C ) Dew Point ( °F °C ) Humidity (%) Winds ( mph kmh ) Pressure ( in mb ) Visibility ( mi km ) Precip ( " mm )
12:15 am 00:15 Cloudy with Rain 51 10.4 51 10.4 100 100 Calm 29.93 1013 4 6.43736 0.06 1.524
12:35 am 00:35 Cloudy with Rain 50 10 50 10 100 100 ENE 3 6 29.91 1013 4 6.43736 0.12 3.048
12:55 am 00:55 Cloudy with Rain 50 10 N/A N/A E 6 9 29.89 1012 4 6.43736 0.18 4.572
1:15 am 01:15 Cloudy with Rain 50 10 N/A N/A E 3 6 29.87 1011 4 6.43736 0.05 1.27
1:35 am 01:35 Cloudy with Light Rain 50 10 N/A N/A Calm 29.87 1011 4 6.43736 0.07 1.778
1:55 am 01:55 Cloudy with Rain 50 10 N/A N/A Calm 29.86 1011 3.5 5.63269 0.11 2.794
2:15 am 02:15 Cloudy with Rain 50 10 N/A N/A Calm 29.85 1011 3.5 5.63269 0.04 1.016
2:35 am 02:35 Cloudy with Rain 50 10 N/A N/A Calm 29.84 1010 3.5 5.63269 0.08 2.032
2:55 am 02:55 Cloudy with Rain 52 11 N/A N/A Calm 29.83 1010 3.5 5.63269 0.11 2.794
3:15 am 03:15 Cloudy with Rain 52 11 N/A N/A ENE 3 6 29.83 1010 3.5 5.63269 0.03 0.762
3:35 am 03:35 Cloudy with Rain 52 11 N/A N/A ENE 3 6 29.82 1010 3 4.82802 0.07 1.778
3:55 am 03:55 Cloudy with Light Rain 52 11 N/A N/A ENE 6 9 29.8 1009 3.5 5.63269 0.1 2.54
4:15 am 04:15 Cloudy with Rain 52 11 N/A N/A E 5 7 29.79 1009 3.5 5.63269 0.03 0.762
4:35 am 04:35 Cloudy with Light Rain 52 11 N/A N/A E 8 13 29.75 1007 4 6.43736 0.06 1.524
4:55 am 04:55 Cloudy with Light Rain 52 11 N/A N/A ENE 10 17 29.74 1007 4 6.43736 0.08 2.032
5:15 am 05:15 Cloudy with Rain 52 11 N/A N/A ENE 9 15 29.73 1007 4 6.43736 0.05 1.27
5:35 am 05:35 Cloudy with Rain 52 11 N/A N/A E 7 11 29.73 1007 4 6.43736 0.11 2.794
5:55 am 05:55 Cloudy with Rain 52 11 N/A N/A ENE 8 13 29.73 1007 4 6.43736 0.19 4.826
6:15 am 06:15 Cloudy with Rain 52 11 N/A N/A E 10 17 29.73 1007 4 6.43736 0.06 1.524
6:35 am 06:35 Cloudy with Rain 51 10.5 51 10.5 100 100 ENE 9 15 29.73 1007 5 8.0467 0.12 3.048
6:55 am 06:55 Cloudy with Rain 51 10.4 50 10.2 99 99 E 15 24 29.71 1006 5 8.0467 0.18 4.572
7:15 am 07:15 Cloudy with Rain 51 10.3 50 10.1 99 99 E 14 22 29.7 1006 5 8.0467 0.04 1.016
7:35 am 07:35 Cloudy with Rain 51 10.3 50 10.2 99 99 E 13 20 29.69 1005 5 8.0467 0.09 2.286
7:55 am 07:55 Cloudy with Rain 50 10.2 50 9.9 98 98 ENE 15 24 29.68 1005 7 11.26538 0.12 3.048
8:15 am 08:15 Cloudy with Rain 50 10 49 9.6 97 97 ENE 15 24 29.7 1006 5 8.0467 0.05 1.27
8:35 am 08:35 Cloudy with Rain 49 9.7 49 9.5 99 99 E 17 28 29.69 1005 4 6.43736 0.12 3.048
8:55 am 08:55 Cloudy with Rain 49 9.6 49 9.4 99 99 ENE 10 17 29.7 1006 4 6.43736 0.18 4.572
9:15 am 09:15 Cloudy with Rain 49 9.4 49 9.2 99 99 ENE 12 19 29.69 1005 4 6.43736 0.04 1.016
9:35 am 09:35 Cloudy with Rain 48 8.9 47 8.6 98 98 ENE 17 28 29.69 1005 5 8.0467 0.1 2.54
9:55 am 09:55 Cloudy with Rain 48 8.7 47 8.4 98 98 ENE 16 26 29.69 1005 5 8.0467 0.16 4.064
10:15 am 10:15 Cloudy with Rain 48 8.7 47 8.3 97 97 ENE 15 24 29.69 1005 5 8.0467 0.04 1.016
10:35 am 10:35 Cloudy with Rain 47 8.5 47 8.1 97 97 E 15 24 29.68 1005 5 8.0467 0.1 2.54
10:55 am 10:55 Cloudy with Rain 47 8.3 46 7.9 97 97 ENE 16 26 29.69 1006 7 11.26538 0.17 4.318
11:15 am 11:15 Cloudy with Rain 47 8.1 46 7.7 97 97 ENE 15 24 29.71 1006 7 11.26538 0.04 1.016
11:35 am 11:35 Cloudy with Rain 47 8.1 46 7.7 97 97 ENE 14 22 29.69 1006 7 11.26538 0.09 2.286
11:55 am 11:55 Cloudy with Light Rain 47 8.1 46 7.7 97 97 E 17 28 29.66 1005 7 11.26538 0.11 2.794
12:15 pm 12:15 Cloudy with Light Rain 47 8.3 46 7.6 95 95 ENE 13 20 29.7 1006 10 16.0934 0.01 0.254
12:35 pm 12:35 Cloudy with Light Rain 47 8.2 46 7.5 95 95 ENE 14 22 29.7 1006 10 16.0934 0.01 0.254
12:55 pm 12:55 Cloudy with Light Rain 47 8.5 46 7.8 95 95 E 13 20 29.68 1005 10 16.0934 0.01 0.254
1:15 pm 13:15 Cloudy 47 8.4 46 7.6 95 95 ENE 12 19 29.68 1005 10 16.0934 0 0
1:35 pm 13:35 Cloudy 47 8.4 46 7.5 94 94 ENE 14 22 29.68 1005 10 16.0934 0 0
1:55 pm 13:55 Cloudy 47 8.4 46 7.5 94 94 ENE 12 19 29.68 1005 10 16.0934 0 0
2:15 pm 14:15 Cloudy with Drizzle 47 8.4 46 7.6 95 95 ENE 13 20 29.67 1005 7 11.26538 0 0
2:35 pm 14:35 Cloudy with Drizzle 46 8 46 8 100 100 E 14 22 29.66 1005 3.5 5.63269 0 0
2:55 pm 14:55 Cloudy with Drizzle 47 8.6 47 8.3 98 98 E 9 15 29.67 1005 3 4.82802 0 0
3:15 pm 15:15 Cloudy with Light Rain 47 8.6 47 8.3 98 98 ENE 9 15 29.67 1005 3 4.82802 0 0
3:35 pm 15:35 Cloudy with Light Rain 48 8.7 47 8.5 99 99 ENE 8 13 29.67 1005 1.75 2.816345 0.03 0.762
3:55 pm 15:55 Cloudy with Light Rain 47 8.6 47 8.4 99 99 NE 12 19 29.69 1005 2.5 4.02335 0.04 1.016
4:15 pm 16:15 Cloudy with Light Rain 47 8.6 47 8.3 98 98 ENE 14 22 29.7 1006 2 3.21868 0.02 0.508
4:35 pm 16:35 Cloudy with Light Rain 47 8.5 46 8 97 97 NE 14 22 29.71 1006 3 4.82802 0.04 1.016
4:55 pm 16:55 Cloudy with Light Rain 47 8.3 46 7.7 96 96 ENE 12 19 29.73 1007 5 8.0467 0.05 1.27
5:15 pm 17:15 Cloudy with Light Rain 47 8.4 46 7.8 96 96 ENE 14 22 29.73 1007 4 6.43736 0.01 0.254
5:35 pm 17:35 Cloudy with Light Rain 47 8.3 46 7.7 96 96 ENE 13 20 29.73 1007 4 6.43736 0.01 0.254
5:55 pm 17:55 Cloudy 47 8.3 46 7.8 97 97 ENE 10 17 29.74 1007 10 16.0934 0.01 0.254
6:15 pm 18:15 Cloudy 47 8.4 46 7.8 96 96 ENE 7 11 29.75 1008 7 11.26538 0 0
6:35 pm 18:35 Cloudy with Drizzle 47 8.3 46 7.7 96 96 NE 12 19 29.76 1008 7 11.26538 0 0
6:55 pm 18:55 Cloudy with Drizzle 46 7.8 44 6.8 93 93 NE 12 19 29.77 1008 10 16.0934 0 0
7:15 pm 19:15 Cloudy with Light Rain 46 7.7 44 6.7 93 93 ENE 7 11 29.78 1009 7 11.26538 0 0
7:35 pm 19:35 Cloudy 46 7.6 44 6.6 93 93 ENE 13 20 29.78 1009 7 11.26538 0 0
7:55 pm 19:55 Cloudy with Light Rain 46 7.5 43 6.3 92 92 ENE 12 19 29.8 1009 7 11.26538 0.01 0.254
8:15 pm 20:15 Cloudy with Light Rain 45 7.4 44 6.5 94 94 ENE 9 15 29.81 1009 5 8.0467 0 0
8:35 pm 20:35 Cloudy with Light Rain 45 7.4 44 6.5 94 94 ENE 8 13 29.81 1009 7 11.26538 0.01 0.254
8:55 pm 20:55 Cloudy with Light Rain 46 7.5 43 6.3 92 92 ENE 10 17 29.82 1010 7 11.26538 0.01 0.254
9:15 pm 21:15 Cloudy with Light Rain 45 7.4 43 6.3 93 93 NE 10 17 29.83 1010 5 8.0467 0.01 0.254
9:35 pm 21:35 Cloudy with Light Rain 45 7.3 44 6.4 94 94 NE 7 11 29.84 1010 7 11.26538 0.02 0.508
9:55 pm 21:55 Cloudy with Light Rain 45 7.3 44 6.8 97 97 NE 8 13 29.85 1011 5 8.0467 0.03 0.762
10:15 pm 22:15 Cloudy 46 7.6 44 6.9 95 95 NE 10 17 29.87 1011 7 11.26538 0 0
10:35 pm 22:35 Cloudy 46 7.9 44 6.8 93 93 NNE 8 13 29.87 1012 10 16.0934 0 0
10:55 pm 22:55 Cloudy 46 8 44 6.9 93 93 NE 8 13 29.88 1012 10 16.0934 0 0
11:15 pm 23:15 Cloudy 46 8 44 6.9 93 93 NE 7 11 29.89 1012 10 16.0934 0 0
11:35 pm 23:35 Cloudy 46 7.9 44 6.8 93 93 NNE 10 17 29.9 1013 10 16.0934 0 0
11:55 pm 23:55 Cloudy 46 7.9 44 6.7 92 92 NE 9 15 29.92 1013 10 16.0934 0 0

Powered by AerisWeather